EW6614 Weather Reports


time (UTC)temp
C
wind
direction
speed
KPH
gust
KPH
rain 1hr
cm
rain 24hr
cm
rain mn
cm
humidity
%
barometer
mb
20260509234618 26 105 14.5 30.6 0.00 0.00 0.00 50 1009.0
20260509234536 26 105 12.9 30.6 0.00 0.00 0.00 61 1008.5
20260509233058 27 126 6.4 17.7 0.00 0.00 0.00 49 1008.5
20260509233023 27 128 4.8 17.7 0.00 0.00 0.00 61 1008.2
20260509231553 27 105 4.8 12.9 0.00 0.00 0.00 49 1008.1
20260509231523 27 110 3.2 12.9 0.00 0.00 0.00 60 1007.9
20260509230023 28 73 4.8 12.9 0.00 0.00 0.00 59 1007.8
20260509224553 28 62 3.2 8.0 0.00 0.00 0.00 48 1007.9
20260509224521 28 62 3.2 8.0 0.00 0.00 0.00 59 1007.7
20260509223056 28 0 0.0 4.8 0.00 0.00 0.00 49 1007.7
20260509223022 28 103 0.0 4.8 0.00 0.00 0.00 60 1007.5
20260509221600 28 0 0.0 6.4 0.00 0.00 0.00 48 1007.4
20260509221520 28 106 1.6 6.4 0.00 0.00 0.00 60 1007.3
20260509220107 28 0 0.0 4.8 0.00 0.00 0.00 49 1007.3
20260509220017 28 110 0.0 0.0 0.00 0.00 0.00 61 1007.1
20260509214553 27 0 0.0 3.2 0.00 0.00 0.00 50 1007.4
20260509214516 27 110 0.0 1.6 0.00 0.00 0.00 61 1007.2
20260509213100 28 110 3.2 9.7 0.00 0.00 0.00 49 1007.4
20260509213014 28 131 3.2 8.0 0.00 0.00 0.00 60 1007.3
20260509211557 28 0 0.0 9.7 0.00 0.00 0.00 50 1007.7
20260509211513 28 355 0.0 6.4 0.00 0.00 0.00 61 1007.6
20260509210057 28 131 3.2 11.3 0.00 0.00 0.00 49 1007.8
20260509210018 28 140 3.2 11.3 0.00 0.00 0.00 61 1007.7
20260509204558 28 78 4.8 12.9 0.00 0.00 0.00 49 1008.0
20260509204510 28 78 4.8 12.9 0.00 0.00 0.00 61 1007.9
20260509203124 28 93 1.6 6.4 0.00 0.00 0.00 49 1008.1
20260509203007 28 90 1.6 6.4 0.00 0.00 0.00 61 1008.0
20260509201604 27 80 1.6 9.7 0.00 0.00 0.00 51 1008.2
20260509201504 27 80 1.6 9.7 0.00 0.00 0.00 62 1008.2
20260509200002 27 124 6.4 16.1 0.00 0.00 0.00 63 1008.4
20260509194601 27 85 3.2 6.4 0.00 0.00 0.00 62 1008.3
20260509194555 27 85 0.0 4.8 0.00 0.00 0.00 51 1008.4
20260509193116 26 0 0.0 9.7 0.00 0.00 0.00 51 1008.7
20260509193114 26 77 0.0 4.8 0.00 0.00 0.00 62 1008.5
20260509191612 26 0 1.6 6.4 0.00 0.00 0.00 51 1008.8
20260509191555 26 199 0.0 6.4 0.00 0.00 0.00 63 1008.7
20260509190056 26 0 1.6 11.3 0.00 0.00 0.00 51 1009.1
20260509190054 26 200 0.0 9.7 0.00 0.00 0.00 63 1008.9
20260509184605 26 161 6.4 12.9 0.00 0.00 0.00 62 1008.9
20260509184559 26 161 4.8 12.9 0.00 0.00 0.00 50 1009.2
20260509183055 25 161 4.8 8.0 0.00 0.00 0.00 49 1009.3
20260509183050 25 161 6.4 8.0 0.00 0.00 0.00 61 1009.1
20260509181559 25 169 3.2 6.4 0.00 0.00 0.00 48 1009.6
20260509181548 25 196 3.2 9.7 0.00 0.00 0.00 60 1009.2
20260509180104 24 329 1.6 4.8 0.00 0.00 0.00 47 1009.9
20260509180044 24 329 1.6 4.8 0.00 0.00 0.00 59 1009.6
20260509174558 23 0 0.0 3.2 0.00 0.00 0.00 49 1009.9
20260509174541 23 165 0.0 3.2 0.00 0.00 0.00 61 1009.8
20260509173101 23 0 0.0 6.4 0.00 0.00 0.00 49 1010.2
20260509173044 23 165 0.0 4.8 0.00 0.00 0.00 61 1010.1
20260509171555 23 0 0.0 6.4 0.00 0.00 0.00 49 1010.2
20260509171544 23 165 0.0 4.8 0.00 0.00 0.00 61 1010.1
20260509170101 23 166 1.6 9.7 0.00 0.00 0.00 50 1010.4
20260509170038 23 166 1.6 9.7 0.00 0.00 0.00 61 1010.3
20260509164607 23 167 0.0 4.8 0.00 0.00 0.00 52 1010.5
20260509164536 23 168 1.6 6.4 0.00 0.00 0.00 63 1010.3
20260509163105 22 0 0.0 4.8 0.00 0.00 0.00 52 1010.5
20260509163031 22 109 1.6 4.8 0.00 0.00 0.00 63 1010.3
20260509161601 22 0 0.0 0.0 0.00 0.00 0.00 52 1010.4
20260509161533 22 110 0.0 0.0 0.00 0.00 0.00 64 1010.3
20260509160057 22 0 0.0 0.0 0.00 0.00 0.00 52 1010.5
20260509160029 22 109 0.0 0.0 0.00 0.00 0.00 64 1010.4
20260509154557 22 0 0.0 0.0 0.00 0.00 0.00 52 1010.3
20260509154531 22 109 0.0 0.0 0.00 0.00 0.00 64 1010.2
20260509153105 22 0 0.0 0.0 0.00 0.00 0.00 53 1010.0
20260509153030 22 109 0.0 0.0 0.00 0.00 0.00 64 1010.0
20260509151607 22 0 0.0 3.2 0.00 0.00 0.00 53 1009.9
20260509151525 22 360 0.0 3.2 0.00 0.00 0.00 64 1009.8
20260509150057 22 0 0.0 4.8 0.00 0.00 0.00 53 1009.7
20260509150023 22 108 0.0 4.8 0.00 0.00 0.00 64 1009.7
20260509144559 21 103 1.6 6.4 0.00 0.00 0.00 52 1009.6
20260509144521 21 103 1.6 6.4 0.00 0.00 0.00 64 1009.6
20260509143056 21 0 3.2 12.9 0.00 0.00 0.00 52 1009.8
20260509143024 21 142 3.2 12.9 0.00 0.00 0.00 64 1009.8
20260509141558 21 0 0.0 0.0 0.00 0.00 0.00 51 1010.2
20260509141524 21 142 0.0 0.0 0.00 0.00 0.00 63 1010.2
20260509140057 21 0 0.0 0.0 0.00 0.00 0.00 51 1010.5
20260509140017 21 144 0.0 0.0 0.00 0.00 0.00 62 1010.4
20260509134558 21 0 0.0 0.0 0.00 0.00 0.00 51 1010.5
20260509134517 21 152 0.0 0.0 0.00 0.00 0.00 62 1010.5
20260509133117 21 173 0.0 0.0 0.00 0.00 0.00 62 1010.3
20260509133055 21 0 0.0 0.0 0.00 0.00 0.00 50 1010.4
20260509131556 21 0 0.0 0.0 0.00 0.00 0.00 50 1010.4
20260509131520 21 174 0.0 0.0 0.00 0.00 0.00 62 1010.4
20260509130015 21 161 0.0 0.0 0.00 0.00 0.00 62 1010.1
20260509124555 21 0 0.0 0.0 0.00 0.00 0.00 50 1010.0
20260509124514 21 161 0.0 0.0 0.00 0.00 0.00 61 1010.0
20260509123058 21 0 0.0 0.0 0.00 0.00 0.00 50 1009.7
20260509123014 21 161 0.0 0.0 0.00 0.00 0.00 61 1009.7
20260509121558 21 0 0.0 0.0 0.00 0.00 0.00 50 1009.6
20260509121522 21 161 0.0 0.0 0.00 0.00 0.00 61 1009.6
20260509120016 21 161 0.0 3.2 0.00 0.00 0.00 61 1009.6
20260509114557 21 0 0.0 8.0 0.00 0.00 0.00 49 1009.5
20260509114512 21 161 0.0 4.8 0.00 0.00 0.00 61 1009.4
20260509113106 21 161 0.0 3.2 0.00 0.00 0.00 49 1009.5
20260509113011 21 161 0.0 3.2 0.00 0.00 0.00 61 1009.4
20260509111604 21 0 0.0 0.0 0.00 0.00 0.00 49 1009.6
20260509111512 21 161 0.0 0.0 0.00 0.00 0.00 61 1009.6
20260509110057 21 0 0.0 0.0 0.00 0.00 0.00 49 1009.8
20260509110012 21 161 0.0 0.0 0.00 0.00 0.00 61 1009.7
20260509104552 21 0 0.0 0.0 0.00 0.00 0.00 49 1009.6
20260509104527 21 161 0.0 0.0 0.00 0.00 0.00 60 1009.6
20260509103055 20 0 0.0 0.0 0.00 0.00 0.00 49 1009.3
20260509103009 20 161 0.0 0.0 0.00 0.00 0.00 60 1009.2
20260509101553 21 0 0.0 0.0 0.00 0.00 0.00 49 1009.4
20260509101509 21 161 0.0 0.0 0.00 0.00 0.00 60 1009.3
20260509100052 21 0 0.0 1.6 0.00 0.00 0.00 49 1009.0
20260509100023 21 161 0.0 1.6 0.00 0.00 0.00 61 1008.7
20260509094554 20 0 0.0 6.4 0.00 0.00 0.00 49 1008.7
20260509094517 21 161 0.0 4.8 0.00 0.00 0.00 60 1008.6
20260509093052 20 161 1.6 3.2 0.00 0.00 0.00 49 1008.9
20260509093006 20 161 1.6 3.2 0.00 0.00 0.00 60 1008.8
20260509091607 20 0 0.0 0.0 0.00 0.00 0.00 49 1009.1
20260509091504 20 161 0.0 0.0 0.00 0.00 0.00 60 1008.9
20260509090055 20 0 0.0 0.0 0.00 0.00 0.00 49 1009.3
20260509090003 20 161 0.0 0.0 0.00 0.00 0.00 60 1009.2
20260509084555 20 0 0.0 0.0 0.00 0.00 0.00 49 1009.3
20260509084502 20 161 0.0 0.0 0.00 0.00 0.00 60 1009.1
20260509083100 20 161 0.0 0.0 0.00 0.00 0.00 60 1009.1
20260509083054 20 0 0.0 0.0 0.00 0.00 0.00 49 1009.3
20260509081600 20 161 0.0 0.0 0.00 0.00 0.00 60 1009.2
20260509081558 20 0 0.0 0.0 0.00 0.00 0.00 49 1009.5
20260509080100 20 161 0.0 0.0 0.00 0.00 0.00 60 1009.6
20260509080059 20 0 0.0 0.0 0.00 0.00 0.00 49 1009.7
20260509074601 20 161 0.0 0.0 0.00 0.00 0.00 60 1009.6
20260509074557 21 0 0.0 0.0 0.00 0.00 0.00 49 1009.6
20260509073058 21 161 0.0 0.0 0.00 0.00 0.00 60 1009.6
20260509073054 21 0 0.0 0.0 0.00 0.00 0.00 49 1009.7
20260509071608 21 161 0.0 0.0 0.00 0.00 0.00 61 1009.7
20260509071559 21 0 0.0 0.0 0.00 0.00 0.00 50 1009.7
20260509070100 21 0 0.0 0.0 0.00 0.00 0.00 50 1010.0
20260509070056 21 161 0.0 0.0 0.00 0.00 0.00 62 1010.0
20260509064604 21 161 0.0 0.0 0.00 0.00 0.00 62 1010.2
20260509064558 21 0 0.0 0.0 0.00 0.00 0.00 50 1010.2
20260509063057 21 0 0.0 0.0 0.00 0.00 0.00 50 1010.2
20260509063052 21 161 0.0 0.0 0.00 0.00 0.00 61 1010.2
20260509061613 21 0 0.0 0.0 0.00 0.00 0.00 50 1010.4
20260509061553 21 161 0.0 0.0 0.00 0.00 0.00 61 1010.4
20260509060124 21 0 0.0 0.0 0.00 0.00 0.00 50 1010.3
20260509060104 21 161 0.0 0.0 0.00 0.00 0.00 61 1010.3
20260509054605 21 161 0.0 1.6 0.00 0.00 0.00 61 1010.3
20260509054554 21 0 0.0 1.6 0.00 0.00 0.00 50 1010.4
20260509053057 21 0 0.0 3.2 0.00 0.00 0.00 50 1010.3
20260509053050 21 161 0.0 3.2 0.00 0.00 0.00 62 1010.3
20260509051648 21 161 0.0 3.2 0.00 0.00 0.00 62 1010.1
20260509051558 21 161 0.0 3.2 0.00 0.00 0.00 50 1010.1
20260509050123 21 0 0.0 8.0 0.00 0.00 0.00 50 1010.1
20260509050055 21 161 0.0 4.8 0.00 0.00 0.00 61 1010.0
20260509044602 20 0 0.0 3.2 0.00 0.00 0.00 50 1009.8
20260509044550 20 161 0.0 1.6 0.00 0.00 0.00 61 1009.8
20260509043053 20 0 1.6 8.0 0.00 0.00 0.00 50 1009.7
20260509043045 20 161 0.0 8.0 0.00 0.00 0.00 62 1009.7
20260509041600 20 150 3.2 8.0 0.00 0.00 0.00 51 1009.7
20260509041544 20 150 3.2 8.0 0.00 0.00 0.00 63 1009.6
20260509040058 21 165 3.2 6.4 0.00 0.00 0.00 52 1009.7
20260509040044 21 165 3.2 6.4 0.00 0.00 0.00 63 1009.6
20260509034637 21 140 0.0 9.7 0.00 0.00 0.00 52 1009.6
20260509034555 21 140 1.6 6.4 0.00 0.00 0.00 63 1009.6
20260509033056 21 171 3.2 11.3 0.00 0.00 0.00 52 1009.5
20260509033042 21 171 3.2 11.3 0.00 0.00 0.00 63 1009.4
20260509031559 21 171 3.2 12.9 0.00 0.00 0.00 52 1009.5
20260509031550 21 171 3.2 11.3 0.00 0.00 0.00 63 1009.6
20260509030057 21 155 3.2 14.5 0.00 0.00 0.00 52 1009.4
20260509030042 21 153 1.6 12.9 0.00 0.00 0.00 64 1009.3
20260509024555 21 167 4.8 9.7 0.00 0.00 0.00 53 1009.3
20260509024541 21 167 4.8 9.7 0.00 0.00 0.00 64 1009.1
20260509023101 21 360 0.0 8.0 0.00 0.00 0.00 54 1009.0
20260509023053 21 360 0.0 8.0 0.00 0.00 0.00 65 1008.9
20260509021555 21 360 0.0 6.4 0.00 0.00 0.00 54 1008.9
20260509021540 21 360 1.6 4.8 0.00 0.00 0.00 65 1008.9
20260509020058 21 360 0.0 1.6 0.00 0.00 0.00 55 1008.8
20260509020047 21 360 0.0 1.6 0.00 0.00 0.00 67 1008.7
20260509014553 21 0 0.0 6.4 0.00 0.00 0.00 55 1008.2
20260509014539 21 360 0.0 6.4 0.00 0.00 0.00 67 1008.2
20260509013103 21 138 1.6 8.0 0.00 0.00 0.00 68 1008.2
20260509013059 21 138 1.6 8.0 0.00 0.00 0.00 57 1008.0
20260509011553 21 125 3.2 12.9 0.00 0.00 0.00 57 1007.9
20260509011538 21 125 1.6 12.9 0.00 0.00 0.00 69 1008.1
20260509010054 22 136 3.2 12.9 0.00 0.00 0.00 57 1008.1
20260509010037 22 136 3.2 8.0 0.00 0.00 0.00 69 1008.2
20260509004554 22 173 8.0 16.1 0.00 0.00 0.00 58 1008.3
20260509004536 22 163 6.4 12.9 0.00 0.00 0.00 70 1008.4
20260509003103 22 151 3.2 8.0 0.00 0.00 0.00 59 1008.8
20260509003034 22 146 3.2 8.0 0.00 0.00 0.00 70 1008.8
20260509001553 22 148 3.2 8.0 0.00 0.00 0.00 59 1009.0
20260509001532 22 148 3.2 8.0 0.00 0.00 0.00 70 1008.8
20260509000104 22 145 3.2 8.0 0.00 0.00 0.00 59 1009.2
20260509000031 22 145 3.2 8.0 0.00 0.00 0.00 70 1009.1